Regional Weather Roundup
Issued by NWS Little Rock, AR

Home | Current Version | Previous Version | Text Only | Print | Product List | Glossary Off
Versions: 1 2 3 4 5 6 7 8 9 10 11 12 13 14 15 16 17 18 19 20 21 22 23 24 25 26 27 28 29 30 31 32 33 34 35 36 37 38 39 40 41 42 43 44 45 46 47 48 49 50

000
ASUS44 KLZK 261005
RWRLZK

WEATHER ROUNDUP FOR ARKANSAS
NATIONAL WEATHER SERVICE LITTLE ROCK AR
400 AM CST MON JAN 26 2015

NOTE: "FAIR" INDICATES FEW OR NO CLOUDS BELOW 12,000 FEET WITH NO
SIGNIFICANT WEATHER AND/OR OBSTRUCTIONS TO VISIBILITY.

ARZ001-003-010-029-261100-
NORTHWEST ARKANSAS

CITY           SKY/WX    TMP DP  RH WIND       PRES   REMARKS
FAYETTEVILLE   CLOUDY    35  29  78 NW7       30.10F WCI  29
FORT SMITH     CLEAR     33  28  81 W8        30.13F WCI  26
HARRISON       CLOUDY    36  31  82 NW5       30.07F
BENTONVILLE    CLOUDY    37  28  70 NW7       30.11S
ROGERS         CLOUDY    36  29  75 NW5       30.10F
SILOAM SPGS    CLEAR     30  23  74 NW3       30.13S
HIGHFILL       PTCLDY    32  27  81 NW5       30.10S WCI  27
$$

ARZ004-005-016-261100-
NORTH CENTRAL ARKANSAS

CITY           SKY/WX    TMP DP  RH WIND       PRES   REMARKS
BATESVILLE     CLEAR     37  28  70 W6        30.06F
FLIPPIN        CLOUDY    37  27  65 NW6       30.07F
MTN HOME       CLOUDY    36  29  75 VRB7G18   30.06F
$$

ARZ040-041-261100-
WEST CENTRAL ARKANSAS

CITY           SKY/WX    TMP DP  RH WIND       PRES   REMARKS
MENA           CLEAR     36  32  87 CALM      30.11S
MOUNT IDA      CLEAR     38  31  76 NW6       30.08S
$$

ARZ009-017-025-026-028-261100-
NORTHEAST ARKANSAS

CITY           SKY/WX    TMP DP  RH WIND       PRES   REMARKS
JONESBORO      CLOUDY    37  31  78 NW9       30.05S
NEWPORT        CLOUDY    38  31  76 N14       30.08S
WALNUT RIDGE   CLOUDY    36  28  75 N13       30.06R
BLYTHEVILLE    CLOUDY    37  33  85 N14       30.03R
$$

ARZ022-023-033-042-044-261100-
CENTRAL ARKANSAS

CITY           SKY/WX    TMP DP  RH WIND       PRES   REMARKS
LITTLE ROCK    PTCLDY    40  30  67 NW6       30.10R
N LITTLE ROCK    N/A     39  33  80 W5        30.10R
JACKSONVILLE   CLEAR     39  31  71 W3        30.09R
SEARCY         MOCLDY    40  31  70 N10       30.09R
HOT SPRINGS    PTCLDY    42  31  64 VRB3      30.10S
RUSSELLVILLE   MOCLDY    40  30  67 W5        30.09S
CLINTON        CLOUDY    39  32  75 NW7       30.11R
$$

ARZ036-261100-
EAST ARKANSAS

CITY           SKY/WX    TMP DP  RH WIND       PRES   REMARKS
WEST MEMPHIS   CLOUDY    39  33  79 N8        30.04R
$$

ARZ050-053-066-070-073-261100-
SOUTHWEST ARKANSAS

CITY           SKY/WX    TMP DP  RH WIND       PRES   REMARKS
ARKADELPHIA    FAIR      40  33  76 NW5       30.12S
CAMDEN         CLEAR     39  30  70 MISG      30.11R
TEXARKANA      CLEAR     40  32  73 NW6       30.13S
EL DORADO      CLEAR     41  32  70 W8        30.12R
DE QUEEN       CLEAR     33  29  85 W3        30.13R
$$

ARZ056-057-069-261100-
SOUTHEAST ARKANSAS

CITY           SKY/WX    TMP DP  RH WIND       PRES   REMARKS
PINE BLUFF     PTCLDY    40  32  73 NW3       30.09S
STUTTGART      CLOUDY    43  32  65 N10       30.08S
MONTICELLO     CLOUDY    45  33  63 NW6       30.08S

$$




USA.gov is the U.S. government's official web portal to all federal, state and local government web resources and services.